Location: Shepherdstown, WV
(39.4326°N, 77.8042°W)
Time: 16:22:16
(UTC-04:00)

Tiros 1 despin weight - Pass Details

Date: 06 August 2021
Orbit: 593 x 641 km, 48.2° (Epoch: 18 September)

Event Time Altitude Azimuth Distance (km) Brightness Sun altitude
Rises 14:44:02 0° 283° (WNW) 2,927 ? 60.2°
Reaches altitude 10° 14:46:38 10° 295° (WNW) 2,024 ? 59.9°
Maximum altitude 14:50:40 28° 355° (N) 1,199 ? 59.3°
Drops below altitude 10° 14:54:43 10° 55° (NE) 2,032 ? 58.7°
Sets 14:57:20 0° 67° (ENE) 2,941 ? 58.3°
